Dewpoint
45 47 48 47 47 47 47 47 48 48 48 48 48 47 47 47 48 46 47 46 47 46 47 47 47 48 49 48 48 49 50 50 50 50 50 51 51 51 52 52 53 53 53
46 47 48 48 47 47 47 48 49 49 48 48 48 47 47 47 47 45 45 45 45 46 47 46 46 47 49 49 48 49 50 50 51 47 48 49 50 51 51 50 51 53 52
46 47 49 48 47 48 48 49 49 49 48 48 47 47 47 48 48 46 45 46 46 46 45 47 46 48 48 47 47 49 49 50 51 48 47 49 50 50 50 50 50 49 51
47 47 47 48 48 47 48 49 49 48 48 47 47 47 47 47 47 48 46 46 46 46 46 46 46 47 49 49 47 48 48 49 48 47 47 47 49 49 50 48 46 48 47
46 46 47 48 48 48 48 48 49 48 48 48 48 48 47 46 45 47 47 46 46 46 45 45 47 47 48 49 49 48 47 48 47 46 46 47 47 47 47 49 46 46 46
47 47 48 48 48 48 48 48 47 47 48 48 48 47 47 46 46 47 47 46 46 45 45 46 46 46 45 47 48 49 49 46 46 46 45 45 46 47 48 47 46 45 43
46 46 47 48 47 47 47 47 48 47 48 47 47 47 46 46 45 45 47 46 46 46 46 46 45 45 45 46 47 47 48 47 47 47 46 46 46 49 49 48 47 47 46
46 46 46 46 46 46 47 47 48 47 46 46 46 47 46 44 44 44 46 47 47 47 46 47 46 46 46 45 46 46 45 46 46 46 49 48 48 48 49 47 48 48 47
44 45 46 46 45 46 47 48 48 46 45 45 45 46 46 45 43 43 45 48 46 46 46 46 46 46 44 45 46 46 45 45 45 45 45 44 44 45 46 46 46 47 46
44 45 46 47 47 45 46 47 46 45 44 44 45 46 45 45 43 42 43 46 47 46 47 47 46 44 43 43 46 45 43 45 46 45 45 45 46 46 47 49 46 46 44
45 46 46 47 48 48 46 46 46 45 45 46 45 46 45 45 45 42 42 46 47 46 46 46 45 43 43 42 43 46 46 44 44 43 44 44 44 44 44 46 47 44 43
47 45 46 47 46 46 47 47 45 46 45 45 44 43 43 44 43 42 41 42 45 47 46 47 46 43 42 42 43 42 42 43 43 42 42 44 42 43 44 45 47 46 47
46 46 46 47 47 46 46 46 45 45 44 44 43 42 42 41 41 42 42 42 43 46 46 46 44 43 44 43 43 44 43 43 42 42 43 44 43 44 45 45 46 46 45
46 46 46 46 46 46 45 46 45 45 45 45 42 41 41 41 40 41 41 42 43 43 45 46 46 45 45 46 45 44 44 44 43 43 44 45 44 45 44 43 42 41 41
46 46 46 43 46 45 46 47 47 47 45 46 45 43 41 41 40 40 40 41 42 42 43 43 42 43 44 45 45 46 44 44 43 44 44 44 44 43 43 43 43 41 40
46 43 42 42 42 44 44 49 43 42 41 41 40 41 41 40 39 39 39 39 39 39 42 41 42 42 42 42 42 43 45 46 43 43 43 43 42 42 42 43 42 42 41
47 46 43 43 42 43 44 48 45 44 42 42 41 41 39 38 38 38 38 38 39 39 41 41 41 43 41 41 42 42 43 44 46 44 43 44 44 43 43 43 44 44 43
47 42 43 42 42 41 44 48 48 47 46 44 41 39 38 38 38 38 38 39 40 41 41 41 41 41 40 39 41 41 41 43 44 46 46 44 44 44 43 44 44 43 43
44 43 43 42 41 42 42 39 38 41 42 41 41 40 39 39 39 39 39 40 40 41 42 41 42 41 40 39 39 41 41 41 40 42 44 45 46 45 44 43 43 39 40
46 43 41 43 41 39 37 37 37 39 39 38 37 38 39 39 40 38 39 39 40 41 41 39 39 41 40 40 40 40 39 39 40 41 41 43 44 46 45 43 43 44 44
45 46 39 41 41 39 38 38 37 37 37 37 36 37 34 39 41 40 39 39 39 41 40 37 36 39 39 39 41 40 39 39 40 42 43 41 43 46 48 46 43 43 43
43 42 40 40 41 40 40 40 39 37 37 37 36 36 35 40 40 41 40 39 38 40 42 41 39 40 39 38 39 39 38 37 40 41 41 40 42 44 45 45 44 44 44
43 40 40 41 41 38 41 40 39 39 38 37 35 35 36 39 40 40 39 37 39 39 39 40 41 39 39 38 36 38 37 36 36 36 38 40 39 41 42 44 44 43 43
40 40 40 41 41 40 40 39 39 37 37 36 37 37 38 40 40 37 36 36 37 37 38 38 39 38 38 37 36 36 34 33 34 36 35 39 37 39 42 44 46 44 42
40 40 41 41 41 41 41 39 38 37 36 36 37 36 38 39 36 35 35 34 34 34 35 35 35 35 35 36 36 34 32 31 32 32 34 35 37 41 42 44 45 44 41
41 43 42 42 41 39 39 38 38 37 37 37 37 38 40 38 35 34 33 32 32 33 33 33 33 33 34 34 33 31 31 31 31 30 31 34 37 44 45 44 44 47 46
Lifted_Index
11 10 10 10 10 10 10 10 9 9 9 9 8 8 8 8 8 8 8 8 8 8 8 8 8 7 6 5 4 4 3 3 2 2 2 2 3 3 4 4 4 5 4
10 10 10 10 10 10 10 9 9 8 8 8 8 8 7 7 8 8 8 8 8 8 8 8 8 7 6 5 5 4 4 3 3 2 2 2 3 3 4 4 5 5 5
10 10 10 10 10 10 9 9 9 8 8 8 8 8 7 7 8 8 8 8 8 8 8 8 8 8 7 6 5 5 4 4 3 2 2 3 3 4 5 5 5 6 6
10 10 10 10 10 10 9 9 9 9 8 8 8 8 8 8 8 8 8 8 8 8 8 8 8 8 7 6 6 5 5 4 3 2 2 3 4 5 5 5 5 6 6
11 11 10 10 10 10 9 9 9 9 9 8 8 8 8 8 8 8 8 8 8 8 8 8 8 8 8 7 6 6 5 5 4 4 4 4 4 5 5 6 6 6 7
11 11 10 10 10 10 9 9 9 9 9 8 8 8 8 8 8 8 8 8 8 8 8 9 9 8 8 8 7 6 6 6 5 5 5 5 5 6 6 6 7 7 7
11 11 10 10 10 10 10 9 9 9 9 9 9 8 8 8 8 8 8 8 8 8 8 9 9 9 8 8 8 7 7 7 6 6 6 6 6 6 7 7 7 7 8
11 11 10 10 10 10 10 9 9 9 10 9 9 9 9 9 9 9 8 8 8 8 8 9 9 9 9 8 8 8 8 7 7 7 6 6 6 7 7 7 7 7 8
12 11 11 10 10 10 10 10 10 10 10 10 10 9 9 10 10 9 8 8 8 8 8 9 9 9 9 9 8 8 8 8 8 8 7 7 7 7 7 7 7 7 7
12 12 11 11 10 10 10 10 10 10 10 10 10 10 10 10 10 10 9 8 8 8 8 9 9 9 9 9 9 9 9 9 9 9 8 8 7 7 7 7 7 7 7
12 12 11 11 10 10 10 10 10 10 10 10 10 10 10 10 10 10 10 9 8 8 8 8 9 9 10 10 9 9 9 9 9 9 9 8 8 7 7 7 7 7 7
12 12 12 11 11 10 10 9 9 9 10 10 10 10 10 10 11 11 11 10 9 9 8 8 8 9 10 10 10 10 10 10 9 9 9 9 8 8 7 7 7 7 8
12 12 11 11 11 11 10 9 9 9 9 10 10 10 10 11 11 11 11 11 10 9 9 9 8 9 9 10 10 10 10 10 9 9 9 9 8 8 8 7 7 7 8
11 11 11 11 11 11 10 9 9 9 9 9 10 10 10 11 11 11 11 11 11 10 10 9 9 9 9 9 9 9 9 9 9 9 8 8 8 8 7 7 8 8 8
11 11 11 11 11 11 10 10 9 9 9 9 10 10 11 11 11 11 11 11 11 11 11 10 10 9 9 9 9 9 8 8 8 8 8 8 8 8 7 7 8 8 8
11 11 11 11 11 11 10 10 10 10 10 10 10 11 11 11 11 11 12 12 12 11 11 11 11 10 10 9 9 8 8 8 8 8 7 7 7 7 7 7 7 8 8
11 11 11 11 11 11 10 10 10 10 10 10 11 11 11 12 12 12 12 12 12 12 11 11 11 11 11 10 10 9 8 8 8 8 7 7 7 7 7 7 7 7 8
10 11 11 11 11 10 10 10 10 10 10 10 11 11 12 12 12 12 12 12 12 12 12 12 12 12 12 12 11 10 9 8 8 8 8 8 7 7 7 7 7 7 8
10 11 11 11 10 10 10 10 10 10 10 10 11 11 12 12 12 12 12 12 12 12 12 12 12 12 12 12 12 11 10 9 9 8 8 8 8 7 7 7 7 7 7
10 10 10 10 10 10 10 10 10 10 11 11 11 12 12 12 12 12 12 12 12 12 12 12 12 12 13 13 12 11 11 10 9 9 8 8 8 7 7 7 7 7 7
10 10 10 10 10 10 10 11 11 11 11 11 12 12 13 13 12 12 12 12 12 12 12 12 12 12 13 13 12 12 11 11 10 9 9 8 8 8 7 8 8 8 7
10 10 10 10 10 10 10 11 11 11 11 12 12 13 13 13 13 13 13 13 12 12 11 11 11 12 13 13 13 12 12 11 10 9 9 8 8 8 8 8 8 8 7
10 10 10 9 9 10 10 11 11 11 11 12 12 13 13 13 13 13 13 13 13 12 12 11 11 12 13 13 13 12 12 11 10 9 9 8 8 8 8 7 7 7 7
10 10 10 9 9 9 10 10 11 11 11 12 12 13 13 13 13 13 13 13 13 12 12 12 12 13 13 13 13 12 12 11 10 10 9 8 8 7 7 7 6 6 7
10 10 9 9 9 9 10 10 11 11 11 12 12 13 13 13 13 13 13 13 12 12 12 13 13 13 13 12 12 11 11 11 10 9 9 8 7 6 6 5 5 5 5
10 9 9 9 9 10 10 11 11 11 11 12 12 13 13 13 13 13 13 13 12 12 12 13 13 14 13 12 11 11 11 11 10 9 9 7 6 5 5 4 5 5 5